Find Starlink 32506

NORAD ID: 62167 Int'l Des: 2024-225 Owner: SPXS Country: US Constellation: starlink operational
LEOCIRCULAR

Current View

Loading 3D Globe...

About Starlink 32506

Starlink 32506 (NORAD 62167) is a starlink constellation satellite (v2 mini) launched Nov 30, 2024 by SPXS of US. It operates in LEO, CIRCULAR orbit with a mass of 730.00 kg.

About Starlink 32506

Description loading...

Upcoming Passes

Passes for default location (London). Set your location on the main map for personalized predictions.

Altitude History

Loading altitude history...

Two-Line Element Set

1 62167U 24225E 26170.65301531 .00002327 00000-0 20273-3 0 9998
2 62167 70.0001 267.5491 0003488 267.1977 92.8783 14.98336039 85149
Epoch: Jun 19, 2026 • Age: 22 hours

Current Status

Altitude 590.3 km
Velocity 7.57 km/s
Sub-Earth Point -54.30°S, 3.21°E
Launch Date Nov 30, 2024
Age 1.5 years
Type internet

Technical Details

Classification Payload
Mass 730.00 kg
Dry Mass 700.00 kg
Total Mass 730.00 kg
Length 0.30 m
Diameter 4.10 m
Span 29.00 m
Shape Box + pan
Manufacturer SPXS
Bus Type Starlink V2M
Phase Status In Orbit
Owner/State SPXS/US

Most Searched